sat.trackr.live / text

‹ back to catalog

STARLINK-36475

NORAD 67350 · 2026-003S

PAYLOAD ACTIVE UNKNOWN

§ Identity

Operator
Country
US
Launch date
2026-01-09
Launch site
AFETR
Launch vehicle
Mass (kg)
RCS (m²)

Purposes: comms

External: N2YO · Heavens-Above · Gunter

§ Orbital elements

Epoch: 2026-05-24T07:45:15.064128Z

Period
94.27 min
Inclination
42.9987°
Eccentricity
0.0002017
Mean motion
15.27603363 rev/d
Perigee alt
481.6 km
Apogee alt
484.4 km
Semi-major
6,861.1 km
B*
5.4190e-4
RAAN
159.6997°
Arg perigee
273.8874°
Mean anomaly
86.1747°
Rev number
2,039

§ Raw data

STARLINK-364751 67350U 26003S   26144.32309102  .00014690  00000+0  54190-3 0  99902 67350  42.9987 159.6997 0002017 273.8874  86.1747 15.27603363 20390

JSON: /api/v1/satellites/67350 · /tle

For live sub-satellite position, see the globe view (requires WebGL).

§ Visibility from observer

Set your observer location to see the next 7 days of passes ≥ 10°. The values pass through the URL so the page stays shareable.

No JS? Fill the form by hand. The geolocation button needs JavaScript.